Raton, NM

2:08 AM MDT on September 26, 2017 (GMT -0600)
Raton Municipal-Crews

Weather History for KRTN - March, 2014

Change the Weather History Date:

Saturday, March 15, 2014

  Actual Average (KTAD) Record (KTAD)
Temperature  
Mean Temperature 39 °F -  
Max Temperature 57 °F 54 °F 79 °F (2017)
Min Temperature 24 °F 25 °F 8 °F (1969)
Degree Days  
Heating Degree Days 26    
Moisture  
Dew Point 23 °F    
Average Humidity 61    
Maximum Humidity 88    
Minimum Humidity 20    
Precipitation  
Precipitation 0.00 in - - ()
Sea Level Pressure  
Sea Level Pressure 29.97 in    
Wind  
Wind Speed 14 mph (NNE)    
Max Wind Speed 33 mph    
Max Gust Speed 48 mph    
Visibility 8 miles    
Events Rain , Snow    
Averages and records for this station are not official NWS values.
T = Trace of Precipitation, MM = Missing Value Source: NWS Daily Summary

Daily Weather History Graph

Daily Weather History Graph

Search for Another Location

Airport or City:

Trip Planner

Search our weather history database for the weather conditions in past years. The results will help you decide how hot, cold, wet, or windy it might be!

Date:

Astronomy

Mar. 15, 2014 Rise Set
Actual Time 7:08 AM MDT 7:05 PM MDT
Civil Twilight 6:43 AM MDT 7:31 PM MDT
Nautical Twilight 6:13 AM MDT 8:01 PM MDT
Astronomical Twilight 5:42 AM MDT 8:31 PM MDT
Moon 6:27 PM MDT (3/15) 6:21 AM MDT (3/15)
Length of Visible Light 12h 48m
Length of Day
11h 56m
Waxing Gibbous, 99% of the Moon is Illuminated
Mar 15
Waxing Gibbous
Mar 16
Full
Mar 23
Last Quarter
Mar 30
New
Apr 7
First Quarter

Hourly Weather History & Observations

Time (MDT) Temp. Windchill Dew Point Humidity Pressure Visibility Wind Dir Wind Speed Gust Speed Precip Events Conditions
12:53 AM 34.0 °F 28.8 °F 25.0 °F 70% 29.92 in 10.0 mi SW 5.8 mph - N/A   Clear
1:53 AM 28.0 °F 21.7 °F 21.9 °F 78% 29.93 in 10.0 mi North 5.8 mph - N/A   Clear
2:53 AM 30.0 °F 21.1 °F 24.1 °F 79% 29.89 in 10.0 mi North 10.4 mph - N/A   Clear
3:53 AM 28.9 °F 21.1 °F 24.1 °F 82% 29.86 in 10.0 mi NNE 8.1 mph - N/A   Clear
4:53 AM 26.1 °F - 21.9 °F 84% 29.88 in 10.0 mi Calm Calm - N/A   Clear
5:53 AM 24.1 °F 15.2 °F 21.0 °F 88% 29.87 in 10.0 mi NNE 8.1 mph - N/A   Clear
6:53 AM 24.1 °F 17.0 °F 19.9 °F 84% 29.89 in 10.0 mi NNW 5.8 mph - N/A   Clear
7:53 AM 25.0 °F 16.3 °F 21.0 °F 85% 29.91 in 10.0 mi ENE 8.1 mph - N/A   Clear
8:53 AM 35.1 °F 31.0 °F 26.1 °F 70% 29.88 in 10.0 mi NE 4.6 mph - N/A   Clear
9:53 AM 43.0 °F 41.3 °F 27.0 °F 53% 29.84 in 10.0 mi NE 3.5 mph - N/A   Clear
10:53 AM 52.0 °F - 23.0 °F 32% 29.81 in 10.0 mi East 5.8 mph - N/A   Clear
11:53 AM 53.1 °F - 12.0 °F 20% 29.78 in 10.0 mi ENE 17.3 mph 28.8 mph N/A   Overcast
12:53 PM 54.0 °F - 12.9 °F 20% 29.79 in 10.0 mi NE 27.6 mph 36.8 mph N/A   Overcast
1:53 PM 53.1 °F - 12.0 °F 20% 29.81 in 10.0 mi NNE 23.0 mph 32.2 mph N/A   Overcast
2:22 PM 45.0 °F 35.1 °F 24.1 °F 44% 29.90 in 10.0 mi North 31.1 mph 38.0 mph N/A   Overcast
2:53 PM 41.0 °F 29.3 °F 26.1 °F 55% 29.92 in 10.0 mi North 33.4 mph 42.6 mph N/A   Overcast
3:53 PM 39.0 °F 28.0 °F 26.1 °F 60% 29.97 in 10.0 mi North 25.3 mph 35.7 mph 0.00 in   Overcast
4:53 PM 39.0 °F 27.0 °F 26.1 °F 60% 30.01 in 9.0 mi NNE 31.1 mph 40.3 mph 0.00 in Rain Light Rain
5:03 PM 36.0 °F 24.4 °F 30.0 °F 79% 30.03 in 1.8 mi NNE 23.0 mph 39.1 mph 0.00 in Snow Light Snow
5:13 PM 35.1 °F 25.2 °F 30.9 °F 85% 30.03 in 1.2 mi NNE 16.1 mph 29.9 mph 0.00 in Snow Light Snow
5:22 PM 35.1 °F 22.7 °F 30.0 °F 82% 30.03 in 3.0 mi NNE 25.3 mph 36.8 mph 0.00 in Snow Light Snow
5:38 PM 35.1 °F 24.1 °F 30.0 °F 82% 30.05 in 9.0 mi NNE 19.6 mph 32.2 mph 0.00 in   Overcast
5:53 PM 36.0 °F 25.6 °F 28.9 °F 76% 30.08 in 10.0 mi NNE 18.4 mph 28.8 mph 0.00 in   Overcast
6:11 PM 36.0 °F 24.7 °F 28.0 °F 73% 30.05 in 3.0 mi NNE 21.9 mph 29.9 mph N/A   Haze
6:23 PM 37.9 °F 27.1 °F 24.1 °F 57% 30.05 in 2.0 mi NNE 23.0 mph 29.9 mph N/A   Haze
6:39 PM 39.0 °F 28.0 °F 21.0 °F 49% 30.06 in 2.5 mi NNE 25.3 mph 40.3 mph N/A   Haze
6:53 PM 39.0 °F 27.4 °F 19.9 °F 46% 30.08 in 3.0 mi NNE 28.8 mph 46.0 mph N/A   Haze
7:39 PM 37.0 °F 24.9 °F 18.0 °F 46% 30.08 in 7.0 mi NNE 27.6 mph 41.4 mph N/A   Overcast
7:53 PM 37.0 °F 24.5 °F 18.0 °F 46% 30.11 in 7.0 mi NNE 29.9 mph 42.6 mph N/A   Overcast
8:39 PM 36.0 °F 23.2 °F 18.0 °F 48% 30.11 in 10.0 mi NNE 28.8 mph 48.3 mph N/A   Scattered Clouds
8:53 PM 36.0 °F 23.7 °F 18.0 °F 48% 30.11 in 10.0 mi NNE 26.5 mph 41.4 mph N/A   Partly Cloudy
9:53 PM 35.1 °F 23.5 °F 19.0 °F 52% 30.13 in 10.0 mi NNE 21.9 mph 36.8 mph N/A   Clear
10:53 PM 34.0 °F 22.1 °F 18.0 °F 52% 30.12 in 10.0 mi NNE 21.9 mph 36.8 mph N/A   Clear
11:53 PM 33.1 °F 22.6 °F 19.0 °F 56% 30.13 in 10.0 mi NNE 16.1 mph 25.3 mph N/A   Clear